This is the latest recevied weather packets stored in our database for station/object OH2HCY. If no packets are shown the sender has not sent any weather packets the latest 10 day(s).
| Time | Temp. | Humidity | Pressure | Rain* | Wind** | Luminosity | Snow |
|---|---|---|---|---|---|---|---|
| 1777913015 | 11.67° C | 68% | 997.8 hPa | - | - | - | - |
| 1777912475 | 11.67° C | 69% | 997.8 hPa | - | - | - | - |
| 1777911940 | 11.67° C | 70% | 997.7 hPa | - | - | - | - |
| 1777910830 | 11.67° C | 71% | 997.7 hPa | - | - | - | - |
| 1777910310 | 11.67° C | 71% | 997.7 hPa | - | - | - | - |
| 1777908735 | 11.11° C | 71% | 997.9 hPa | - | - | - | - |
| 1777908190 | 11.11° C | 70% | 998 hPa | - | - | - | - |
| 1777907635 | 11.11° C | 71% | 997.9 hPa | - | - | - | - |
| 1777907065 | 11.11° C | 71% | 997.9 hPa | - | - | - | - |
| 1777905920 | 11.67° C | 68% | 997.7 hPa | - | - | - | - |
| 1777905355 | 11.11° C | 72% | 998 hPa | - | - | - | - |
| 1777903705 | 10.56° C | 75% | 998.2 hPa | - | - | - | - |
| 1777903165 | 10.56° C | 76% | 998.2 hPa | - | - | - | - |
| 1777901535 | 10° C | 79% | 998.7 hPa | - | - | - | - |
| 1777900990 | 10° C | 82% | 998.6 hPa | - | - | - | - |
| 1777900440 | 10° C | 82% | 998.9 hPa | - | - | - | - |
| 1777899890 | 10° C | 84% | 999 hPa | - | - | - | - |
| 1777898820 | 9.44° C | 82% | 999.4 hPa | - | - | - | - |
| 1777898265 | 9.44° C | 82% | 999.5 hPa | - | - | - | - |
| 1777897730 | 9.44° C | 80% | 999.4 hPa | - | - | - | - |
| 1777897165 | 8.89° C | 81% | 999.6 hPa | - | - | - | - |
| 1777896630 | 8.89° C | 82% | 999.8 hPa | - | - | - | - |
| 1777896098 | 8.89° C | 85% | 1000 hPa | - | - | - | - |
| 1777895590 | 8.89° C | 84% | 1000.1 hPa | - | - | - | - |
| 1777895005 | 8.89° C | 84% | 1000.1 hPa | - | - | - | - |
* Rain since midnight (hover to see other rain measurements)
** Current wind speed in m/s (hover to see current wind gust speed)